NOAA NWS Hourly Roundups by Site

Regional Weather Roundup for State College, PA

To Select Another Site Choose from List

Select Site:  

014
ASUS41 KCTP 131810
RWRCTP

REGIONAL WEATHER ROUNDUP
NATIONAL WEATHER SERVICE STATE COLLEGE PA
200 PM EDT SAT JUL 13 2024

Note: "fair" indicates few or no clouds below 12,000 feet with no
significant weather and/or obstructions to visibility.

* = STATION THAT DOES NOT REPORT PRECIPITATION /E.G. RAIN...SNOW...ETC/
    THUNDER OR FOG.

PAZ002>004-007>009-013>016-020>023-029>032-131900-
WESTERN PENNSYLVANIA

CITY           SKY/WX    TMP DP  RH WIND       PRES   REMARKS
ERIE           SUNNY     82  66  58 N9        30.18F
MEADVILLE      MOSUNNY   85  66  53 MISG      30.18F
FRANKLIN       MOSUNNY   84  65  52 W6        30.20F
NEW CASTLE     MOSUNNY   88  66  48 CALM      30.17F
BEAVER COUNTY  MOSUNNY   92  61  34 NW5       30.18F
BUTLER         SUNNY     89  65  44 W8        30.18F
PITTSBURGH INT PTSUNNY   90  62  39 CALM      30.16F
PITTSBURGH     PTSUNNY   91  61  36 MISG      30.15F
INDIANA*       MOSUNNY   90  63  40 W7        30.20F
LATROBE        NOT AVBL
CONNELLSVILLE  MOSUNNY   91  60  36 NW3       30.17F
WASHINGTON CO* MOSUNNY   91  61  36 SW6       30.18F
$$

PAZ004>006-010>012-017>019-024>028-033>037-041-042-045-046-049>053-131900-
CENTRAL PENNSYLVANIA

CITY           SKY/WX    TMP DP  RH WIND       PRES   REMARKS
BRADFORD       PTSUNNY   85  67  54 NW7       30.22F
ST MARYS       CLOUDY    82  63  51 NW5       30.24S
DUBOIS         MOSUNNY   86  63  45 CALM      30.19F
CLEARFIELD     PTSUNNY   89  63  41 NW6       30.18F
JOHNSTOWN      MOSUNNY   86  60  41 W8        30.22F
SOMERSET       MOSUNNY   82  59  44 NW5       30.22F
ALTOONA        MOSUNNY   87  64  46 VRB6      30.17F
STATE COLLEGE  MOSUNNY   86  66  51 S3        30.16F
REEDSVILLE     MOSUNNY   90  70  51 CALM      30.13F HX  95
WELLSBORO      MOSUNNY   82  66  57 N7        30.19S
WILLIAMSPORT   SUNNY     89  64  43 CALM      30.11F
SELINSGROVE    SUNNY     88  69  53 NW3       30.12F
FT INDIANTOWN  MOSUNNY   89  67  48 S3        30.09F
CAPITAL CITY   MOSUNNY   91  64  40 CALM      30.11F
HARRISBURG     MOSUNNY   90  69  50 SW3       30.10F
YORK           SUNNY     89  70  53 MISG      30.12F
$$

PAZ038>040-043-044-047-048-054-055-060>062-067>071-131900-
EASTERN PENNSYLVANIA

CITY           SKY/WX    TMP DP  RH WIND       PRES   REMARKS
TOWANDA        NOT AVBL
SCRANTON       SUNNY     88  67  49 NW7       30.14F
MOUNT POCONO     N/A     83  63  50 CALM      30.18F
HAZLETON       SUNNY     82  66  57 CALM      30.21F
LEHIGHTON      MOSUNNY   88  66  48 CALM      30.12F
ALLENTOWN      SUNNY     88  69  53 CALM      30.11F
QN CITY/ALNTWN   N/A     88  70  55 CALM      30.13F
QUAKERTOWN*    MOSUNNY   86  70  58 CALM      30.12F
PERKASIE*      MOSUNNY   86  68  54 CALM      30.13F
DOYLESTOWN     MOSUNNY   89  69  51 VRB5      30.11F
READING        SUNNY     87  69  54 CALM      30.10F
LANCASTER      MOSUNNY   88  70  55 E7        30.11F
COATESVILLE    MOSUNNY   86  72  62 VRB5      30.14F
WEST CHESTER   MOSUNNY   86  70  58 E3        30.12F
POTTSTOWN      NOT AVBL
BLUE BELL      PTSUNNY   86  71  60 NE3       30.11F
NORTH PHILA    CLOUDY    89  69  51 CALM      30.11F
PHILADELPHIA   MOSUNNY   87  71  58 S7        30.10F
$$



 

View Past Reports for State College, PA.

Products Courtesy of NOAA-NWS
NWS Information Parsing Script by Ken True at Saratoga Weather - Script by SE Lincoln Weather.